Time,TemperatureF,DewpointF,PressureIn,WindDirection,WindDirectionDegrees,WindSpeedMPH,WindSpeedGustMPH,Humidity,HourlyPrecipIn,Conditions,Clouds,dailyrainin,SoftwareType,DateUTC
2013-05-22 00:00:00,54.9,53.2,29.76,ESE,123,12.6,14.0,94,0.01,,,0.45,VWS V14.01,2013-05-22 04:00:00,
2013-05-22 00:01:00,54.9,53.2,29.76,SSE,160,5.6,9.8,94,0.00,,,0.00,VWS V14.01,2013-05-22 04:01:00,
2013-05-22 00:06:00,54.8,53.1,29.76,SSE,155,4.2,9.8,94,0.00,,,0.00,VWS V14.01,2013-05-22 04:06:00,
2013-05-22 00:11:00,54.6,52.9,29.76,South,169,1.4,9.8,94,0.00,,,0.00,VWS V14.01,2013-05-22 04:11:00,
2013-05-22 00:16:00,54.6,52.9,29.76,SE,126,2.8,9.8,94,0.00,,,0.00,VWS V14.01,2013-05-22 04:16:00,
2013-05-22 00:21:00,54.7,53.3,29.76,SSE,164,2.8,9.8,95,0.00,,,0.00,VWS V14.01,2013-05-22 04:21:00,
2013-05-22 00:26:00,54.8,53.4,29.76,SSE,153,5.6,9.8,95,0.00,,,0.00,VWS V14.01,2013-05-22 04:26:00,
2013-05-22 00:31:00,55.0,53.6,29.76,SE,141,4.2,9.8,95,0.00,,,0.00,VWS V14.01,2013-05-22 04:31:00,
2013-05-22 00:36:00,55.1,53.7,29.76,SE,127,5.6,9.8,95,0.00,,,0.00,VWS V14.01,2013-05-22 04:36:00,
2013-05-22 00:41:00,55.1,53.7,29.76,SSE,155,5.6,9.8,95,0.00,,,0.00,VWS V14.01,2013-05-22 04:41:00,
2013-05-22 00:46:00,55.2,53.8,29.76,ESE,111,8.4,9.8,95,0.00,,,0.00,VWS V14.01,2013-05-22 04:46:00,
2013-05-22 00:51:00,55.2,53.5,29.76,ESE,117,5.6,9.8,94,0.00,,,0.00,VWS V14.01,2013-05-22 04:51:00,
2013-05-22 00:56:00,55.1,53.4,29.76,South,169,4.2,9.8,94,0.00,,,0.00,VWS V14.01,2013-05-22 04:56:00,
2013-05-22 01:00:00,54.9,53.2,29.76,ESE,123,12.6,14.0,94,0.01,,,0.45,VWS V14.01,2013-05-22 05:00:00,
2013-05-22 01:01:00,55.1,53.4,29.76,SE,131,2.8,9.8,94,0.00,,,0.00,VWS V14.01,2013-05-22 05:01:00,
2013-05-22 01:06:00,55.0,53.3,29.75,SE,130,5.6,9.8,94,0.00,,,0.00,VWS V14.01,2013-05-22 05:06:00,
2013-05-22 01:11:00,55.0,53.3,29.76,ESE,122,1.4,9.8,94,0.00,,,0.00,VWS V14.01,2013-05-22 05:11:00,
2013-05-22 01:16:00,54.8,53.1,29.76,SSE,150,5.6,9.8,94,0.00,,,0.00,VWS V14.01,2013-05-22 05:16:00,
2013-05-22 01:21:00,54.8,53.4,29.76,SSE,152,4.2,9.8,95,0.00,,,0.00,VWS V14.01,2013-05-22 05:21:00,
2013-05-22 01:26:00,54.8,53.4,29.76,SE,145,5.6,9.8,95,0.00,,,0.00,VWS V14.01,2013-05-22 05:26:00,
2013-05-22 01:31:00,54.8,53.4,29.76,SSE,158,4.2,9.8,95,0.00,,,0.00,VWS V14.01,2013-05-22 05:31:00,
2013-05-22 01:36:00,54.9,53.5,29.76,ESE,115,2.8,9.8,95,0.00,,,0.00,VWS V14.01,2013-05-22 05:36:00,
2013-05-22 01:41:00,55.0,53.6,29.76,SSE,154,4.2,9.8,95,0.00,,,0.00,VWS V14.01,2013-05-22 05:41:00,
2013-05-22 01:46:00,55.0,53.6,29.75,SSE,152,5.6,9.8,95,0.00,,,0.00,VWS V14.01,2013-05-22 05:46:00,
2013-05-22 01:51:00,55.1,53.7,29.76,SSE,159,5.6,9.8,95,0.00,,,0.00,VWS V14.01,2013-05-22 05:51:00,
2013-05-22 01:56:00,55.2,53.8,29.76,SE,136,5.6,9.8,95,0.00,,,0.00,VWS V14.01,2013-05-22 05:56:00,
2013-05-22 02:00:00,55.2,53.8,29.76,South,172,5.6,9.8,95,0.00,,,0.00,VWS V14.01,2013-05-22 06:00:00,
2013-05-22 02:01:00,55.2,53.8,29.75,SSE,164,4.2,7.0,95,0.00,,,0.00,VWS V14.01,2013-05-22 06:01:00,
2013-05-22 02:06:00,55.2,53.8,29.75,South,169,2.8,7.0,95,0.00,,,0.00,VWS V14.01,2013-05-22 06:06:00,
2013-05-22 02:11:00,55.2,53.8,29.75,SSE,148,1.4,7.0,95,0.00,,,0.00,VWS V14.01,2013-05-22 06:11:00,
2013-05-22 02:16:00,55.1,53.7,29.75,ESE,110,4.2,7.0,95,0.00,,,0.00,VWS V14.01,2013-05-22 06:16:00,
2013-05-22 02:21:00,55.1,53.7,29.75,ESE,116,4.2,9.8,95,0.00,,,0.00,VWS V14.01,2013-05-22 06:21:00,
2013-05-22 02:26:00,54.9,53.5,29.75,SE,126,1.4,9.8,95,0.00,,,0.00,VWS V14.01,2013-05-22 06:26:00,
2013-05-22 02:31:00,54.8,53.4,29.75,SSE,165,2.8,9.8,95,0.00,,,0.00,VWS V14.01,2013-05-22 06:31:00,
2013-05-22 02:36:00,54.8,53.4,29.75,SE,134,1.4,9.8,95,0.00,,,0.00,VWS V14.01,2013-05-22 06:36:00,
2013-05-22 02:41:00,54.8,53.4,29.75,SE,143,1.4,9.8,95,0.00,,,0.00,VWS V14.01,2013-05-22 06:41:00,
2013-05-22 02:46:00,54.7,53.3,29.75,SSE,150,1.4,9.8,95,0.00,,,0.00,VWS V14.01,2013-05-22 06:46:00,
2013-05-22 02:51:00,54.7,53.3,29.75,SE,126,0.0,9.8,95,0.00,,,0.00,VWS V14.01,2013-05-22 06:51:00,
2013-05-22 02:56:00,54.6,53.2,29.75,ESE,108,0.0,9.8,95,0.00,,,0.00,VWS V14.01,2013-05-22 06:56:00,
2013-05-22 03:00:00,55.2,53.8,29.76,South,172,5.6,9.8,95,0.00,,,0.00,VWS V14.01,2013-05-22 07:00:00,
2013-05-22 03:01:00,54.3,52.9,29.75,SE,129,0.0,9.8,95,0.00,,,0.00,VWS V14.01,2013-05-22 07:01:00,
2013-05-22 03:06:00,54.3,52.9,29.75,ESE,120,0.0,9.8,95,0.00,,,0.00,VWS V14.01,2013-05-22 07:06:00,
2013-05-22 03:11:00,54.2,52.8,29.75,ESE,117,0.0,9.8,95,0.00,,,0.00,VWS V14.01,2013-05-22 07:11:00,
2013-05-22 03:16:00,54.0,52.6,29.75,ESE,117,0.0,9.8,95,0.00,,,0.00,VWS V14.01,2013-05-22 07:16:00,
2013-05-22 03:21:00,54.0,52.6,29.75,ESE,119,0.0,9.8,95,0.00,,,0.00,VWS V14.01,2013-05-22 07:21:00,
2013-05-22 03:26:00,54.1,53.0,29.75,ESE,117,0.0,9.8,96,0.00,,,0.00,VWS V14.01,2013-05-22 07:26:00,
2013-05-22 03:31:00,54.1,53.0,29.75,ESE,119,0.0,9.8,96,0.00,,,0.00,VWS V14.01,2013-05-22 07:31:00,
2013-05-22 03:35:00,53.8,52.4,29.75,ESE,119,0.0,9.8,95,0.00,,,0.00,VWS V14.01,2013-05-22 07:35:00,
2013-05-22 03:40:00,53.6,52.2,29.75,East,98,0.0,9.8,95,0.00,,,0.00,VWS V14.01,2013-05-22 07:40:00,
2013-05-22 03:45:00,53.6,52.5,29.75,East,97,0.0,9.8,96,0.00,,,0.00,VWS V14.01,2013-05-22 07:45:00,
2013-05-22 03:50:00,53.6,52.5,29.75,East,98,0.0,9.8,96,0.00,,,0.00,VWS V14.01,2013-05-22 07:50:00,
2013-05-22 03:55:00,53.5,52.4,29.75,NE,41,0.0,9.8,96,0.00,,,0.00,VWS V14.01,2013-05-22 07:55:00,
2013-05-22 04:00:00,53.2,51.8,29.75,NNE,18,0.0,1.4,95,0.00,,,0.00,VWS V14.01,2013-05-22 08:00:00,
2013-05-22 04:05:00,52.2,50.5,29.75,North,11,0.0,5.6,94,0.00,,,0.00,VWS V14.01,2013-05-22 08:05:00,
2013-05-22 04:10:00,50.8,48.8,29.76,NNE,26,2.8,7.0,93,0.00,,,0.00,VWS V14.01,2013-05-22 08:10:00,
2013-05-22 04:15:00,50.6,49.2,29.75,NNE,26,0.0,7.0,95,0.00,,,0.00,VWS V14.01,2013-05-22 08:15:00,
2013-05-22 04:20:00,50.7,49.6,29.75,NNE,26,0.0,7.0,96,0.00,,,0.00,VWS V14.01,2013-05-22 08:20:00,
2013-05-22 04:25:00,50.8,49.7,29.75,NNE,26,0.0,7.0,96,0.00,,,0.00,VWS V14.01,2013-05-22 08:25:00,
2013-05-22 04:30:00,51.1,50.0,29.75,NNE,26,0.0,7.0,96,0.00,,,0.00,VWS V14.01,2013-05-22 08:30:00,
2013-05-22 04:35:00,51.8,51.0,29.75,NNE,26,0.0,7.0,97,0.00,,,0.00,VWS V14.01,2013-05-22 08:35:00,
2013-05-22 04:40:00,52.2,51.4,29.75,NNE,25,0.0,7.0,97,0.00,,,0.00,VWS V14.01,2013-05-22 08:40:00,
2013-05-22 04:45:00,52.4,51.6,29.75,NNE,26,0.0,7.0,97,0.00,,,0.00,VWS V14.01,2013-05-22 08:45:00,
2013-05-22 04:50:00,52.5,51.7,29.76,NNE,25,0.0,7.0,97,0.00,,,0.00,VWS V14.01,2013-05-22 08:50:00,
2013-05-22 04:55:00,52.9,52.1,29.76,NNE,25,0.0,7.0,97,0.00,,,0.00,VWS V14.01,2013-05-22 08:55:00,
2013-05-22 05:00:00,53.2,52.4,29.76,NNE,26,0.0,7.0,97,0.00,,,0.00,VWS V14.01,2013-05-22 09:00:00,
2013-05-22 05:05:00,53.4,52.6,29.76,NNE,26,0.0,7.0,97,0.00,,,0.00,VWS V14.01,2013-05-22 09:05:00,
2013-05-22 05:10:00,53.3,52.5,29.76,NNE,25,0.0,7.0,97,0.00,,,0.00,VWS V14.01,2013-05-22 09:10:00,
2013-05-22 05:15:00,53.0,52.2,29.76,NNE,26,0.0,7.0,97,0.00,,,0.00,VWS V14.01,2013-05-22 09:15:00,
2013-05-22 05:20:00,52.9,51.8,29.77,NNE,25,0.0,7.0,96,0.00,,,0.00,VWS V14.01,2013-05-22 09:20:00,
2013-05-22 05:25:00,52.4,51.3,29.77,NNE,25,1.4,7.0,96,0.00,,,0.00,VWS V14.01,2013-05-22 09:25:00,
2013-05-22 05:30:00,51.9,50.8,29.77,NNE,26,0.0,7.0,96,0.00,,,0.00,VWS V14.01,2013-05-22 09:30:00,
2013-05-22 05:35:00,52.2,51.1,29.77,NNE,26,0.0,7.0,96,0.00,,,0.00,VWS V14.01,2013-05-22 09:35:00,
2013-05-22 05:40:00,52.7,51.9,29.77,NNE,25,0.0,7.0,97,0.00,,,0.00,VWS V14.01,2013-05-22 09:40:00,
2013-05-22 05:45:00,53.1,52.3,29.76,NNE,26,0.0,7.0,97,0.00,,,0.00,VWS V14.01,2013-05-22 09:45:00,
2013-05-22 05:50:00,53.4,52.6,29.76,NNE,26,0.0,7.0,97,0.00,,,0.00,VWS V14.01,2013-05-22 09:50:00,
2013-05-22 05:55:00,53.3,52.5,29.76,NNE,26,0.0,7.0,97,0.00,,,0.00,VWS V14.01,2013-05-22 09:55:00,
2013-05-22 06:00:00,53.5,52.7,29.76,NNE,25,0.0,0.0,97,0.00,,,0.00,VWS V14.01,2013-05-22 10:00:00,
2013-05-22 06:05:00,53.6,52.8,29.76,NNE,26,0.0,0.0,97,0.00,,,0.00,VWS V14.01,2013-05-22 10:05:00,
2013-05-22 06:10:00,52.7,51.6,29.76,ENE,61,0.0,0.0,96,0.00,,,0.00,VWS V14.01,2013-05-22 10:10:00,
2013-05-22 06:15:00,52.0,50.6,29.76,ENE,60,0.0,0.0,95,0.00,,,0.00,VWS V14.01,2013-05-22 10:15:00,
2013-05-22 06:20:00,51.9,50.8,29.76,NNW,327,0.0,0.0,96,0.00,,,0.00,VWS V14.01,2013-05-22 10:20:00,
2013-05-22 06:25:00,50.5,48.6,29.76,North,357,7.0,9.8,93,0.00,,,0.00,VWS V14.01,2013-05-22 10:25:00,
2013-05-22 06:30:00,49.2,47.5,29.76,North,355,4.2,9.8,94,0.00,,,0.00,VWS V14.01,2013-05-22 10:30:00,
2013-05-22 06:32:00,49.0,47.3,29.76,NNE,13,5.6,9.8,94,0.00,,,0.00,VWS V14.01,2013-05-22 10:32:00,
2013-05-22 06:37:00,49.2,48.1,29.76,NNW,335,1.4,9.8,96,0.00,,,0.00,VWS V14.01,2013-05-22 10:37:00,
2013-05-22 06:42:00,50.1,49.3,29.76,NW,313,2.8,9.8,97,0.00,,,0.00,VWS V14.01,2013-05-22 10:42:00,
2013-05-22 06:47:00,50.8,50.0,29.76,North,1,1.4,9.8,97,0.00,,,0.00,VWS V14.01,2013-05-22 10:47:00,
2013-05-22 06:52:00,50.9,50.1,29.75,NNE,13,5.6,9.8,97,0.00,,,0.00,VWS V14.01,2013-05-22 10:52:00,
2013-05-22 06:57:00,50.2,49.4,29.75,NNW,335,2.8,9.8,97,0.00,,,0.00,VWS V14.01,2013-05-22 10:57:00,
2013-05-22 07:00:00,53.5,52.7,29.76,NNE,26,0.0,7.0,97,0.00,,,0.00,VWS V14.01,2013-05-22 11:00:00,
2013-05-22 07:02:00,50.8,50.0,29.75,NW,319,1.4,9.8,97,0.00,,,0.00,VWS V14.01,2013-05-22 11:02:00,
2013-05-22 07:07:00,51.6,50.8,29.76,NNW,338,0.0,9.8,97,0.00,,,0.00,VWS V14.01,2013-05-22 11:07:00,
2013-05-22 07:12:00,52.2,51.4,29.76,NNW,337,0.0,9.8,97,0.00,,,0.00,VWS V14.01,2013-05-22 11:12:00,
2013-05-22 07:17:00,52.5,51.7,29.76,NNW,337,1.4,9.8,97,0.00,,,0.00,VWS V14.01,2013-05-22 11:17:00,
2013-05-22 07:22:00,52.9,52.1,29.76,NNW,337,0.0,9.8,97,0.00,,,0.00,VWS V14.01,2013-05-22 11:22:00,
2013-05-22 07:27:00,53.2,52.4,29.76,NNW,333,0.0,9.8,97,0.00,,,0.00,VWS V14.01,2013-05-22 11:27:00,
2013-05-22 07:32:00,53.5,52.7,29.76,NNW,337,0.0,9.8,97,0.00,,,0.00,VWS V14.01,2013-05-22 11:32:00,
2013-05-22 07:37:00,53.6,52.8,29.77,NNW,336,0.0,9.8,97,0.00,,,0.00,VWS V14.01,2013-05-22 11:37:00,
2013-05-22 07:42:00,53.7,52.9,29.76,NNW,334,0.0,9.8,97,0.00,,,0.00,VWS V14.01,2013-05-22 11:42:00,
2013-05-22 07:47:00,53.8,53.0,29.76,NNW,330,1.4,9.8,97,0.00,,,0.00,VWS V14.01,2013-05-22 11:47:00,
2013-05-22 07:52:00,53.9,53.1,29.76,NNW,347,1.4,9.8,97,0.00,,,0.00,VWS V14.01,2013-05-22 11:52:00,
2013-05-22 07:57:00,53.9,53.1,29.77,NW,316,0.0,9.8,97,0.00,,,0.00,VWS V14.01,2013-05-22 11:57:00,
2013-05-22 08:00:00,54.0,53.2,29.77,NW,316,0.0,9.8,97,0.00,,,0.00,VWS V14.01,2013-05-22 12:00:00,
2013-05-22 08:02:00,54.1,53.3,29.76,NNW,331,1.4,1.4,97,0.00,,,0.00,VWS V14.01,2013-05-22 12:02:00,
2013-05-22 08:07:00,54.0,53.2,29.77,North,11,1.4,2.8,97,0.00,,,0.00,VWS V14.01,2013-05-22 12:07:00,
2013-05-22 08:12:00,53.6,52.8,29.77,NNW,332,1.4,2.8,97,0.00,,,0.00,VWS V14.01,2013-05-22 12:12:00,
2013-05-22 08:17:00,53.6,52.8,29.77,NNW,331,0.0,2.8,97,0.00,,,0.00,VWS V14.01,2013-05-22 12:17:00,
2013-05-22 08:22:00,53.7,52.9,29.77,NNW,332,0.0,2.8,97,0.00,,,0.00,VWS V14.01,2013-05-22 12:22:00,
2013-05-22 08:27:00,53.8,53.0,29.77,NNW,344,0.0,2.8,97,0.00,,,0.00,VWS V14.01,2013-05-22 12:27:00,
2013-05-22 08:32:00,54.0,53.2,29.77,NNW,344,0.0,2.8,97,0.00,,,0.00,VWS V14.01,2013-05-22 12:32:00,
2013-05-22 08:37:00,54.2,53.4,29.77,NNW,344,0.0,2.8,97,0.00,,,0.00,VWS V14.01,2013-05-22 12:37:00,
2013-05-22 08:42:00,54.5,53.7,29.77,NNW,345,0.0,2.8,97,0.00,,,0.00,VWS V14.01,2013-05-22 12:42:00,
2013-05-22 08:47:00,54.6,53.8,29.77,NNW,345,0.0,2.8,97,0.00,,,0.00,VWS V14.01,2013-05-22 12:47:00,
2013-05-22 08:52:00,54.8,54.0,29.77,NNW,344,0.0,2.8,97,0.00,,,0.00,VWS V14.01,2013-05-22 12:52:00,
2013-05-22 08:57:00,54.9,54.1,29.78,NNW,344,0.0,2.8,97,0.00,,,0.00,VWS V14.01,2013-05-22 12:57:00,
2013-05-22 09:00:00,54.0,53.2,29.77,NW,316,0.0,9.8,97,0.00,,,0.00,VWS V14.01,2013-05-22 13:00:00,
2013-05-22 09:02:00,55.1,54.3,29.77,NNW,344,0.0,2.8,97,0.00,,,0.00,VWS V14.01,2013-05-22 13:02:00,
2013-05-22 09:07:00,55.2,54.4,29.77,NNW,342,0.0,2.8,97,0.00,,,0.00,VWS V14.01,2013-05-22 13:07:00,
2013-05-22 09:12:00,54.5,53.7,29.78,NNW,344,0.0,2.8,97,0.00,,,0.00,VWS V14.01,2013-05-22 13:12:00,
2013-05-22 09:17:00,55.1,54.3,29.78,SSE,166,1.4,2.8,97,0.00,,,0.00,VWS V14.01,2013-05-22 13:17:00,
2013-05-22 09:22:00,55.4,54.6,29.78,SSE,155,0.0,2.8,97,0.00,,,0.00,VWS V14.01,2013-05-22 13:22:00,
2013-05-22 09:27:00,55.7,54.9,29.78,ESE,115,0.0,2.8,97,0.00,,,0.00,VWS V14.01,2013-05-22 13:27:00,
2013-05-22 09:32:00,55.7,54.9,29.78,ESE,119,1.4,2.8,97,0.00,,,0.00,VWS V14.01,2013-05-22 13:32:00,
2013-05-22 09:37:00,55.8,54.7,29.78,ESE,108,2.8,5.6,96,0.00,,,0.00,VWS V14.01,2013-05-22 13:37:00,
2013-05-22 09:42:00,55.9,54.5,29.78,South,170,2.8,8.4,95,0.00,,,0.00,VWS V14.01,2013-05-22 13:42:00,
2013-05-22 09:47:00,56.0,54.6,29.78,ESE,120,2.8,8.4,95,0.00,,,0.00,VWS V14.01,2013-05-22 13:47:00,
2013-05-22 09:52:00,55.9,54.2,29.78,ESE,122,2.8,8.4,94,0.00,,,0.00,VWS V14.01,2013-05-22 13:52:00,
2013-05-22 09:57:00,55.8,54.1,29.78,East,101,1.4,8.4,94,0.00,,,0.00,VWS V14.01,2013-05-22 13:57:00,
2013-05-22 10:00:00,55.7,53.7,29.78,ESE,105,1.4,8.4,93,0.00,,,0.00,VWS V14.01,2013-05-22 14:00:00,
2013-05-22 10:02:00,55.5,53.5,29.78,ESE,103,1.4,2.8,93,0.00,,,0.00,VWS V14.01,2013-05-22 14:02:00,
2013-05-22 10:07:00,55.2,53.2,29.78,ESE,112,0.0,2.8,93,0.00,,,0.00,VWS V14.01,2013-05-22 14:07:00,
2013-05-22 10:11:00,54.9,52.9,29.77,East,94,2.8,2.8,93,0.00,,,0.00,VWS V14.01,2013-05-22 14:11:00,
2013-05-22 10:16:00,53.7,50.5,29.77,NE,43,0.0,5.6,89,0.00,,,0.00,VWS V14.01,2013-05-22 14:16:00,
2013-05-22 10:21:00,52.7,49.8,29.77,North,8,0.0,5.6,90,0.00,,,0.00,VWS V14.01,2013-05-22 14:21:00,
2013-05-22 10:26:00,52.6,50.3,29.77,North,5,0.0,5.6,92,0.00,,,0.00,VWS V14.01,2013-05-22 14:26:00,
2013-05-22 10:29:00,52.8,50.8,29.77,NW,324,0.0,5.6,93,0.00,,,0.00,VWS V14.01,2013-05-22 14:29:00,
2013-05-22 10:34:00,53.5,51.8,29.77,ESE,110,1.4,5.6,94,0.00,,,0.00,VWS V14.01,2013-05-22 14:34:00,
2013-05-22 10:39:00,53.9,51.9,29.77,ESE,107,1.4,5.6,93,0.00,,,0.00,VWS V14.01,2013-05-22 14:39:00,
2013-05-22 10:41:00,54.0,52.0,29.77,East,88,0.0,5.6,93,0.00,,,0.00,VWS V14.01,2013-05-22 14:41:00,
2013-05-22 10:46:00,53.9,51.6,29.77,ENE,58,0.0,5.6,92,0.00,,,0.00,VWS V14.01,2013-05-22 14:46:00,
2013-05-22 10:51:00,53.7,51.4,29.77,North,5,1.4,5.6,92,0.00,,,0.00,VWS V14.01,2013-05-22 14:51:00,
2013-05-22 10:56:00,53.4,51.1,29.77,North,351,0.0,5.6,92,0.00,,,0.00,VWS V14.01,2013-05-22 14:56:00,
2013-05-22 11:00:00,55.7,53.7,29.78,ESE,105,1.4,8.4,93,0.00,,,0.00,VWS V14.01,2013-05-22 15:00:00,
2013-05-22 11:01:00,53.4,51.1,29.78,North,354,1.4,5.6,92,0.00,,,0.00,VWS V14.01,2013-05-22 15:01:00,
2013-05-22 11:06:00,53.4,51.1,29.78,NNW,329,1.4,5.6,92,0.00,,,0.00,VWS V14.01,2013-05-22 15:06:00,
2013-05-22 11:11:00,53.3,51.0,29.78,NNW,344,0.0,5.6,92,0.00,,,0.00,VWS V14.01,2013-05-22 15:11:00,
2013-05-22 11:16:00,53.3,51.0,29.78,North,4,0.0,5.6,92,0.00,,,0.00,VWS V14.01,2013-05-22 15:16:00,
2013-05-22 11:21:00,53.7,51.4,29.78,North,5,0.0,5.6,92,0.00,,,0.00,VWS V14.01,2013-05-22 15:21:00,
2013-05-22 11:26:00,54.2,51.9,29.78,North,5,0.0,5.6,92,0.00,,,0.00,VWS V14.01,2013-05-22 15:26:00,
2013-05-22 11:31:00,54.6,52.0,29.78,East,101,0.0,5.6,91,0.00,,,0.00,VWS V14.01,2013-05-22 15:31:00,
2013-05-22 11:36:00,54.7,51.8,29.78,ESE,102,0.0,5.6,90,0.00,,,0.00,VWS V14.01,2013-05-22 15:36:00,
2013-05-22 11:41:00,55.0,52.1,29.78,NE,39,0.0,5.6,90,0.00,,,0.00,VWS V14.01,2013-05-22 15:41:00,
2013-05-22 11:46:00,55.2,52.0,29.78,NE,39,0.0,5.6,89,0.00,,,0.00,VWS V14.01,2013-05-22 15:46:00,
2013-05-22 11:51:00,55.3,51.8,29.78,SE,125,0.0,5.6,88,0.00,,,0.00,VWS V14.01,2013-05-22 15:51:00,
2013-05-22 11:56:00,55.4,52.2,29.78,ESE,102,0.0,5.6,89,0.00,,,0.00,VWS V14.01,2013-05-22 15:56:00,
2013-05-22 12:00:00,55.5,52.3,29.78,East,83,0.0,5.6,89,0.00,,,0.00,VWS V14.01,2013-05-22 16:00:00,
2013-05-22 12:01:00,55.5,52.3,29.78,East,93,0.0,1.4,89,0.00,,,0.00,VWS V14.01,2013-05-22 16:01:00,
2013-05-22 12:06:00,55.7,52.2,29.78,East,93,0.0,1.4,88,0.00,,,0.00,VWS V14.01,2013-05-22 16:06:00,
2013-05-22 12:11:00,55.7,52.2,29.78,East,96,0.0,2.8,88,0.00,,,0.00,VWS V14.01,2013-05-22 16:11:00,
2013-05-22 12:16:00,55.7,52.5,29.78,ENE,65,0.0,2.8,89,0.00,,,0.00,VWS V14.01,2013-05-22 16:16:00,
2013-05-22 12:21:00,55.7,52.2,29.78,NNW,345,1.4,4.2,88,0.00,,,0.00,VWS V14.01,2013-05-22 16:21:00,
2013-05-22 12:26:00,55.1,51.6,29.78,NNE,26,0.0,4.2,88,0.00,,,0.00,VWS V14.01,2013-05-22 16:26:00,
2013-05-22 12:31:00,54.9,51.4,29.78,NNE,30,1.4,4.2,88,0.00,,,0.00,VWS V14.01,2013-05-22 16:31:00,
2013-05-22 12:36:00,54.3,51.1,29.78,NNE,12,0.0,4.2,89,0.00,,,0.00,VWS V14.01,2013-05-22 16:36:00,
2013-05-22 12:41:00,54.1,50.9,29.78,NNE,29,1.4,4.2,89,0.00,,,0.00,VWS V14.01,2013-05-22 16:41:00,
2013-05-22 12:46:00,54.2,51.0,29.78,North,350,2.8,4.2,89,0.00,,,0.00,VWS V14.01,2013-05-22 16:46:00,
2013-05-22 12:51:00,54.4,51.2,29.78,NNE,18,2.8,4.2,89,0.00,,,0.00,VWS V14.01,2013-05-22 16:51:00,
2013-05-22 12:56:00,54.6,51.7,29.78,North,354,1.4,4.2,90,0.00,,,0.00,VWS V14.01,2013-05-22 16:56:00,
2013-05-22 13:00:00,55.5,52.3,29.78,East,83,0.0,5.6,89,0.00,,,0.00,VWS V14.01,2013-05-22 17:00:00,
2013-05-22 13:01:00,54.9,51.7,29.78,NE,46,0.0,4.2,89,0.00,,,0.00,VWS V14.01,2013-05-22 17:01:00,
2013-05-22 13:06:00,55.1,51.6,29.78,NNE,22,0.0,4.2,88,0.00,,,0.00,VWS V14.01,2013-05-22 17:06:00,
2013-05-22 13:11:00,55.3,51.8,29.78,East,84,0.0,4.2,88,0.00,,,0.00,VWS V14.01,2013-05-22 17:11:00,
2013-05-22 13:16:00,55.3,51.8,29.78,East,99,0.0,4.2,88,0.00,,,0.00,VWS V14.01,2013-05-22 17:16:00,
2013-05-22 13:21:00,55.3,51.8,29.78,ESE,105,0.0,4.2,88,0.00,,,0.00,VWS V14.01,2013-05-22 17:21:00,
2013-05-22 13:26:00,55.1,51.3,29.78,NNW,342,2.8,4.2,87,0.00,,,0.00,VWS V14.01,2013-05-22 17:26:00,
2013-05-22 13:31:00,54.5,51.0,29.78,NNW,340,1.4,4.2,88,0.00,,,0.00,VWS V14.01,2013-05-22 17:31:00,
2013-05-22 13:36:00,53.7,49.9,29.77,North,9,2.8,7.0,87,0.00,,,0.00,VWS V14.01,2013-05-22 17:36:00,
2013-05-22 13:41:00,52.9,49.8,29.77,NNW,341,0.0,7.0,89,0.00,,,0.00,VWS V14.01,2013-05-22 17:41:00,
2013-05-22 13:46:00,53.2,50.7,29.77,NW,321,1.4,7.0,91,0.00,,,0.00,VWS V14.01,2013-05-22 17:46:00,
2013-05-22 13:51:00,53.6,51.0,29.78,NNE,22,0.0,7.0,91,0.00,,,0.00,VWS V14.01,2013-05-22 17:51:00,
2013-05-22 13:56:00,53.9,51.6,29.77,NNW,343,2.8,7.0,92,0.00,,,0.00,VWS V14.01,2013-05-22 17:56:00,
2013-05-22 14:00:00,54.1,51.8,29.78,North,11,2.8,7.0,92,0.00,,,0.00,VWS V14.01,2013-05-22 18:00:00,
2013-05-22 14:01:00,54.2,51.9,29.78,NNW,343,2.8,4.2,92,0.00,,,0.00,VWS V14.01,2013-05-22 18:01:00,
2013-05-22 14:06:00,54.6,52.3,29.77,NNW,341,0.0,4.2,92,0.00,,,0.00,VWS V14.01,2013-05-22 18:06:00,
2013-05-22 14:11:00,54.9,52.3,29.77,North,350,0.0,4.2,91,0.00,,,0.00,VWS V14.01,2013-05-22 18:11:00,
2013-05-22 14:16:00,54.8,52.2,29.77,North,355,1.4,4.2,91,0.00,,,0.00,VWS V14.01,2013-05-22 18:16:00,
2013-05-22 14:21:00,54.6,51.4,29.77,ENE,78,1.4,4.2,89,0.00,,,0.00,VWS V14.01,2013-05-22 18:21:00,
2013-05-22 14:26:00,54.4,51.2,29.77,North,4,0.0,4.2,89,0.00,,,0.00,VWS V14.01,2013-05-22 18:26:00,
2013-05-22 14:31:00,54.5,51.6,29.77,East,83,0.0,4.2,90,0.00,,,0.00,VWS V14.01,2013-05-22 18:31:00,
2013-05-22 14:36:00,54.6,51.7,29.77,NE,36,1.4,4.2,90,0.00,,,0.00,VWS V14.01,2013-05-22 18:36:00,
2013-05-22 14:41:00,54.7,51.5,29.77,NNE,26,0.0,4.2,89,0.00,,,0.00,VWS V14.01,2013-05-22 18:41:00,
2013-05-22 14:46:00,55.0,51.5,29.77,NNE,16,0.0,4.2,88,0.00,,,0.00,VWS V14.01,2013-05-22 18:46:00,
2013-05-22 14:51:00,55.3,51.8,29.77,ENE,68,0.0,4.2,88,0.00,,,0.00,VWS V14.01,2013-05-22 18:51:00,
2013-05-22 14:56:00,55.5,51.7,29.77,ENE,63,0.0,4.2,87,0.00,,,0.00,VWS V14.01,2013-05-22 18:56:00,
2013-05-22 15:00:00,54.1,51.8,29.78,North,11,2.8,7.0,92,0.00,,,0.00,VWS V14.01,2013-05-22 19:00:00,
2013-05-22 15:01:00,55.5,51.4,29.77,North,350,4.2,5.6,86,0.00,,,0.00,VWS V14.01,2013-05-22 19:01:00,
2013-05-22 15:06:00,54.8,50.7,29.77,NNW,336,2.8,5.6,86,0.00,,,0.00,VWS V14.01,2013-05-22 19:06:00,
2013-05-22 15:11:00,54.6,50.8,29.77,NNE,18,0.0,5.6,87,0.00,,,0.00,VWS V14.01,2013-05-22 19:11:00,
2013-05-22 15:16:00,54.5,50.7,29.77,ENE,58,2.8,5.6,87,0.00,,,0.00,VWS V14.01,2013-05-22 19:16:00,
2013-05-22 15:21:00,54.7,50.9,29.76,ENE,65,2.8,5.6,87,0.00,,,0.00,VWS V14.01,2013-05-22 19:21:00,
2013-05-22 15:26:00,54.8,50.7,29.76,NE,46,0.0,5.6,86,0.00,,,0.00,VWS V14.01,2013-05-22 19:26:00,
2013-05-22 15:31:00,54.9,50.8,29.76,East,92,2.8,5.6,86,0.00,,,0.00,VWS V14.01,2013-05-22 19:31:00,
2013-05-22 15:36:00,54.8,50.4,29.76,NNE,23,0.0,5.6,85,0.00,,,0.00,VWS V14.01,2013-05-22 19:36:00,
2013-05-22 15:41:00,54.4,50.0,29.76,NNE,13,1.4,5.6,85,0.00,,,0.00,VWS V14.01,2013-05-22 19:41:00,
2013-05-22 15:46:00,54.4,50.6,29.76,NE,44,1.4,5.6,87,0.00,,,0.00,VWS V14.01,2013-05-22 19:46:00,
2013-05-22 15:51:00,54.7,50.3,29.76,NNE,30,1.4,7.0,85,0.00,,,0.00,VWS V14.01,2013-05-22 19:51:00,
2013-05-22 15:56:00,54.1,49.4,29.76,NE,40,2.8,8.4,84,0.00,,,0.00,VWS V14.01,2013-05-22 19:56:00,
2013-05-22 16:00:00,53.3,48.6,29.76,NE,53,2.8,8.4,84,0.00,,,0.00,VWS V14.01,2013-05-22 20:00:00,
2013-05-22 16:01:00,53.0,48.6,29.76,NNE,15,1.4,2.8,85,0.00,,,0.00,VWS V14.01,2013-05-22 20:01:00,
2013-05-22 16:06:00,52.3,48.2,29.76,North,354,2.8,4.2,86,0.00,,,0.00,VWS V14.01,2013-05-22 20:06:00,
2013-05-22 16:11:00,52.1,48.4,29.76,NNE,18,1.4,4.2,87,0.00,,,0.00,VWS V14.01,2013-05-22 20:11:00,
2013-05-22 16:16:00,52.5,49.0,29.76,NNE,13,2.8,8.4,88,0.00,,,0.00,VWS V14.01,2013-05-22 20:16:00,
2013-05-22 16:21:00,52.8,48.7,29.77,ENE,61,2.8,8.4,86,0.00,,,0.00,VWS V14.01,2013-05-22 20:21:00,
2013-05-22 16:26:00,52.8,49.0,29.77,North,9,2.8,8.4,87,0.00,,,0.00,VWS V14.01,2013-05-22 20:26:00,
2013-05-22 16:31:00,52.6,48.5,29.77,NNE,15,2.8,8.4,86,0.00,,,0.00,VWS V14.01,2013-05-22 20:31:00,
2013-05-22 16:36:00,52.3,48.2,29.77,NE,46,0.0,8.4,86,0.00,,,0.00,VWS V14.01,2013-05-22 20:36:00,
2013-05-22 16:41:00,52.3,48.2,29.77,ESE,112,0.0,8.4,86,0.00,,,0.00,VWS V14.01,2013-05-22 20:41:00,
2013-05-22 16:46:00,52.7,49.0,29.77,ESE,112,0.0,8.4,87,0.00,,,0.00,VWS V14.01,2013-05-22 20:46:00,
2013-05-22 16:51:00,53.5,49.7,29.77,ENE,63,1.4,8.4,87,0.00,,,0.00,VWS V14.01,2013-05-22 20:51:00,
2013-05-22 16:56:00,53.8,49.4,29.77,ENE,60,0.0,8.4,85,0.00,,,0.00,VWS V14.01,2013-05-22 20:56:00,
2013-05-22 17:00:00,53.3,48.6,29.76,NE,53,2.8,8.4,84,0.00,,,0.00,VWS V14.01,2013-05-22 21:00:00,
2013-05-22 17:01:00,54.1,49.7,29.77,ESE,117,0.0,8.4,85,0.00,,,0.00,VWS V14.01,2013-05-22 21:01:00,
2013-05-22 17:06:00,54.5,50.1,29.77,NE,53,2.8,8.4,85,0.00,,,0.00,VWS V14.01,2013-05-22 21:06:00,
2013-05-22 17:11:00,54.7,50.0,29.77,ENE,70,0.0,8.4,84,0.00,,,0.00,VWS V14.01,2013-05-22 21:11:00,
2013-05-22 17:16:00,54.6,49.9,29.77,ENE,67,1.4,8.4,84,0.00,,,0.00,VWS V14.01,2013-05-22 21:16:00,
2013-05-22 17:21:00,54.5,49.8,29.77,ENE,64,2.8,8.4,84,0.00,,,0.00,VWS V14.01,2013-05-22 21:21:00,
2013-05-22 17:26:00,54.1,49.4,29.76,North,359,0.0,8.4,84,0.00,,,0.00,VWS V14.01,2013-05-22 21:26:00,
2013-05-22 17:31:00,53.5,48.5,29.76,ENE,57,2.8,8.4,83,0.00,,,0.00,VWS V14.01,2013-05-22 21:31:00,
2013-05-22 17:36:00,52.8,48.4,29.76,NNE,18,4.2,8.4,85,0.00,,,0.00,VWS V14.01,2013-05-22 21:36:00,
2013-05-22 17:41:00,52.9,49.1,29.77,NNE,32,1.4,8.4,87,0.00,,,0.00,VWS V14.01,2013-05-22 21:41:00,
2013-05-22 17:46:00,53.6,49.8,29.77,NNW,343,2.8,8.4,87,0.00,,,0.00,VWS V14.01,2013-05-22 21:46:00,
2013-05-22 17:51:00,54.1,50.0,29.77,North,351,1.4,8.4,86,0.00,,,0.00,VWS V14.01,2013-05-22 21:51:00,
2013-05-22 17:56:00,54.1,49.7,29.77,NNW,344,1.4,8.4,85,0.00,,,0.00,VWS V14.01,2013-05-22 21:56:00,
2013-05-22 18:00:00,53.8,49.1,29.77,NNE,20,1.4,8.4,84,0.00,,,0.00,VWS V14.01,2013-05-22 22:00:00,
2013-05-22 18:01:00,53.6,48.9,29.77,North,6,1.4,2.8,84,0.00,,,0.00,VWS V14.01,2013-05-22 22:01:00,
2013-05-22 18:06:00,53.0,48.6,29.77,North,11,4.2,5.6,85,0.00,,,0.00,VWS V14.01,2013-05-22 22:06:00,
2013-05-22 18:11:00,52.8,48.4,29.77,ENE,63,4.2,7.0,85,0.00,,,0.00,VWS V14.01,2013-05-22 22:11:00,
2013-05-22 18:16:00,52.6,48.5,29.77,North,351,5.6,8.4,86,0.00,,,0.00,VWS V14.01,2013-05-22 22:16:00,
2013-05-22 18:21:00,52.4,48.3,29.77,North,355,4.2,9.8,86,0.00,,,0.00,VWS V14.01,2013-05-22 22:21:00,
2013-05-22 18:26:00,52.4,48.3,29.77,NE,44,1.4,9.8,86,0.00,,,0.00,VWS V14.01,2013-05-22 22:26:00,
2013-05-22 18:31:00,52.2,48.2,29.77,NNW,340,4.2,9.8,86,0.00,,,0.00,VWS V14.01,2013-05-22 22:31:00,
2013-05-22 18:36:00,51.6,47.6,29.77,NE,39,2.8,9.8,86,0.00,,,0.00,VWS V14.01,2013-05-22 22:36:00,
2013-05-22 18:41:00,51.6,48.2,29.77,North,353,2.8,9.8,88,0.00,,,0.00,VWS V14.01,2013-05-22 22:41:00,
2013-05-22 18:46:00,51.9,48.5,29.78,NE,46,2.8,11.2,88,0.00,,,0.00,VWS V14.01,2013-05-22 22:46:00,
2013-05-22 18:51:00,52.0,48.3,29.77,NE,49,7.0,11.2,87,0.00,,,0.00,VWS V14.01,2013-05-22 22:51:00,
2013-05-22 18:56:00,51.5,48.1,29.77,North,357,2.8,11.2,88,0.00,,,0.00,VWS V14.01,2013-05-22 22:56:00,
2013-05-22 19:00:00,53.8,49.1,29.77,NNE,20,1.4,8.4,84,0.00,,,0.00,VWS V14.01,2013-05-22 23:00:00,
2013-05-22 19:01:00,51.5,48.4,29.77,NNW,334,4.2,11.2,89,0.01,,,0.01,VWS V14.01,2013-05-22 23:01:00,
2013-05-22 19:06:00,51.4,48.3,29.77,NNW,346,1.4,11.2,89,0.01,,,0.01,VWS V14.01,2013-05-22 23:06:00,
2013-05-22 19:11:00,51.1,48.3,29.77,NNW,330,1.4,11.2,90,0.01,,,0.01,VWS V14.01,2013-05-22 23:11:00,
2013-05-22 19:16:00,51.2,48.4,29.77,NW,310,4.2,11.2,90,0.01,,,0.01,VWS V14.01,2013-05-22 23:16:00,
2013-05-22 19:21:00,51.3,48.8,29.77,North,358,2.8,11.2,91,0.01,,,0.01,VWS V14.01,2013-05-22 23:21:00,
2013-05-22 19:26:00,51.6,49.1,29.77,NNE,16,4.2,11.2,91,0.01,,,0.01,VWS V14.01,2013-05-22 23:26:00,
2013-05-22 19:31:00,51.6,49.4,29.78,NNW,335,4.2,11.2,92,0.01,,,0.01,VWS V14.01,2013-05-22 23:31:00,
2013-05-22 19:36:00,52.3,50.3,29.78,North,353,1.4,11.2,93,0.01,,,0.01,VWS V14.01,2013-05-22 23:36:00,
2013-05-22 19:41:00,53.0,50.7,29.78,NNW,341,2.8,11.2,92,0.01,,,0.01,VWS V14.01,2013-05-22 23:41:00,
2013-05-22 19:46:00,53.6,51.3,29.78,NW,321,2.8,11.2,92,0.01,,,0.01,VWS V14.01,2013-05-22 23:46:00,
2013-05-22 19:51:00,53.8,51.2,29.79,North,352,2.8,11.2,91,0.01,,,0.01,VWS V14.01,2013-05-22 23:51:00,
2013-05-22 19:56:00,53.8,51.2,29.79,NW,316,4.2,11.2,91,0.01,,,0.01,VWS V14.01,2013-05-22 23:56:00,
2013-05-22 20:00:00,53.9,51.3,29.79,NNW,338,2.8,11.2,91,0.01,,,0.01,VWS V14.01,2013-05-23 00:00:00,
2013-05-22 20:01:00,53.9,51.6,29.79,NNW,330,2.8,4.2,92,0.00,,,0.01,VWS V14.01,2013-05-23 00:01:00,
2013-05-22 20:06:00,54.0,51.7,29.79,NNW,339,4.2,4.2,92,0.00,,,0.01,VWS V14.01,2013-05-23 00:06:00,
2013-05-22 20:11:00,54.3,51.4,29.79,NNW,333,5.6,8.4,90,0.00,,,0.01,VWS V14.01,2013-05-23 00:11:00,
2013-05-22 20:16:00,54.5,51.0,29.80,North,354,5.6,11.2,88,0.00,,,0.01,VWS V14.01,2013-05-23 00:16:00,
2013-05-22 20:21:00,54.4,50.6,29.80,NNE,25,5.6,11.2,87,0.00,,,0.01,VWS V14.01,2013-05-23 00:21:00,
2013-05-22 20:25:00,54.1,50.0,29.80,North,351,5.6,11.2,86,0.00,,,0.01,VWS V14.01,2013-05-23 00:25:00,
2013-05-22 20:30:00,53.4,49.3,29.80,NNW,335,1.4,11.2,86,0.00,,,0.01,VWS V14.01,2013-05-23 00:30:00,
2013-05-22 20:35:00,53.0,49.2,29.80,NNW,338,4.2,11.2,87,0.00,,,0.01,VWS V14.01,2013-05-23 00:35:00,
2013-05-22 20:40:00,52.8,49.3,29.81,NW,316,2.8,11.2,88,0.00,,,0.01,VWS V14.01,2013-05-23 00:40:00,
2013-05-22 20:45:00,52.5,49.0,29.81,NNW,337,2.8,11.2,88,0.00,,,0.01,VWS V14.01,2013-05-23 00:45:00,
2013-05-22 20:50:00,52.2,49.1,29.81,NNW,340,5.6,11.2,89,0.00,,,0.01,VWS V14.01,2013-05-23 00:50:00,
2013-05-22 20:55:00,52.5,50.0,29.81,WNW,293,2.8,11.2,91,0.00,,,0.01,VWS V14.01,2013-05-23 00:55:00,
2013-05-22 21:00:00,52.8,50.2,29.81,North,360,5.6,12.6,91,0.00,,,0.01,VWS V14.01,2013-05-23 01:00:00,
2013-05-22 21:05:00,52.7,49.8,29.81,NNW,341,8.4,12.6,90,0.01,,,0.02,VWS V14.01,2013-05-23 01:05:00,
2013-05-22 21:10:00,52.6,50.0,29.82,NE,53,8.4,12.6,91,0.01,,,0.02,VWS V14.01,2013-05-23 01:10:00,
2013-05-22 21:15:00,52.5,50.0,29.82,NNW,336,9.8,14.0,91,0.01,,,0.02,VWS V14.01,2013-05-23 01:15:00,
2013-05-22 21:20:00,52.0,49.8,29.82,NW,324,7.0,14.0,92,0.01,,,0.02,VWS V14.01,2013-05-23 01:20:00,
2013-05-22 21:25:00,51.5,49.5,29.82,North,358,4.2,14.0,93,0.02,,,0.03,VWS V14.01,2013-05-23 01:25:00,
2013-05-22 21:30:00,51.0,49.0,29.82,West,264,2.8,14.0,93,0.02,,,0.03,VWS V14.01,2013-05-23 01:30:00,
2013-05-22 21:35:00,50.7,49.0,29.82,NNW,330,2.8,14.0,94,0.02,,,0.03,VWS V14.01,2013-05-23 01:35:00,
2013-05-22 21:40:00,50.3,48.6,29.82,NNW,328,2.8,14.0,94,0.02,,,0.03,VWS V14.01,2013-05-23 01:40:00,
2013-05-22 21:45:00,50.1,48.4,29.83,NW,319,5.6,14.0,94,0.03,,,0.04,VWS V14.01,2013-05-23 01:45:00,
2013-05-22 21:50:00,50.1,48.7,29.82,NW,325,8.4,14.0,95,0.03,,,0.04,VWS V14.01,2013-05-23 01:50:00,
2013-05-22 21:55:00,50.2,48.8,29.83,WNW,291,8.4,14.0,95,0.03,,,0.04,VWS V14.01,2013-05-23 01:55:00,
2013-05-22 22:00:00,50.2,48.8,29.83,West,269,8.4,11.2,95,0.00,,,0.04,VWS V14.01,2013-05-23 02:00:00,
2013-05-22 22:05:00,50.1,49.0,29.83,NNW,338,8.4,12.6,96,0.00,,,0.04,VWS V14.01,2013-05-23 02:05:00,
2013-05-22 22:10:00,50.0,48.6,29.83,NE,36,5.6,12.6,95,0.01,,,0.05,VWS V14.01,2013-05-23 02:10:00,
2013-05-22 22:15:00,49.8,48.4,29.83,NW,320,9.8,12.6,95,0.01,,,0.05,VWS V14.01,2013-05-23 02:15:00,
2013-05-22 22:20:00,49.6,48.2,29.83,NNW,338,9.8,14.0,95,0.01,,,0.05,VWS V14.01,2013-05-23 02:20:00,
2013-05-22 22:25:00,49.6,48.5,29.83,North,356,4.2,14.0,96,0.01,,,0.05,VWS V14.01,2013-05-23 02:25:00,
2013-05-22 22:30:00,49.6,48.5,29.83,NNW,346,4.2,14.0,96,0.01,,,0.05,VWS V14.01,2013-05-23 02:30:00,
2013-05-22 22:35:00,49.6,48.2,29.83,West,280,5.6,14.0,95,0.01,,,0.05,VWS V14.01,2013-05-23 02:35:00,
2013-05-22 22:40:00,49.6,48.2,29.83,NW,316,7.0,14.0,95,0.01,,,0.05,VWS V14.01,2013-05-23 02:40:00,
2013-05-22 22:45:00,49.6,48.2,29.83,NNW,332,9.8,14.0,95,0.01,,,0.05,VWS V14.01,2013-05-23 02:45:00,
2013-05-22 22:50:00,49.5,48.1,29.83,NW,305,8.4,14.0,95,0.02,,,0.06,VWS V14.01,2013-05-23 02:50:00,
2013-05-22 22:55:00,49.4,48.0,29.84,NW,321,7.0,19.6,95,0.02,,,0.06,VWS V14.01,2013-05-23 02:55:00,
2013-05-22 23:00:00,49.1,47.7,29.84,NW,313,8.4,19.6,95,0.02,,,0.06,VWS V14.01,2013-05-23 03:00:00,
2013-05-22 23:05:00,48.9,47.5,29.84,NNW,340,5.6,19.6,95,0.02,,,0.06,VWS V14.01,2013-05-23 03:05:00,
2013-05-22 23:10:00,48.7,47.3,29.84,NW,312,9.8,19.6,95,0.02,,,0.06,VWS V14.01,2013-05-23 03:10:00,
2013-05-22 23:15:00,48.7,47.3,29.84,SSW,204,5.6,19.6,95,0.02,,,0.06,VWS V14.01,2013-05-23 03:15:00,
2013-05-22 23:20:00,48.6,47.2,29.84,North,350,8.4,19.6,95,0.02,,,0.06,VWS V14.01,2013-05-23 03:20:00,
2013-05-22 23:25:00,48.4,46.8,29.84,WSW,249,9.8,19.6,94,0.02,,,0.06,VWS V14.01,2013-05-23 03:25:00,
2013-05-22 23:30:00,48.1,46.5,29.84,NNW,331,7.0,19.6,94,0.02,,,0.06,VWS V14.01,2013-05-23 03:30:00,
2013-05-22 23:35:00,47.8,46.2,29.84,NNW,341,8.4,19.6,94,0.02,,,0.06,VWS V14.01,2013-05-23 03:35:00,
2013-05-22 23:40:00,47.4,45.8,29.84,NNW,329,14.0,19.6,94,0.02,,,0.06,VWS V14.01,2013-05-23 03:40:00,
2013-05-22 23:45:00,47.3,45.4,29.84,NW,322,8.4,19.6,93,0.03,,,0.07,VWS V14.01,2013-05-23 03:45:00,
2013-05-22 23:50:00,47.0,45.4,29.84,NNW,331,11.2,21.0,94,0.03,,,0.07,VWS V14.01,2013-05-23 03:50:00,
2013-05-22 23:55:00,47.5,45.9,29.84,NNE,19,12.6,22.4,94,0.03,,,0.07,VWS V14.01,2013-05-23 03:55:00,